TimeCDT,TemperatureF,Dew PointF,Humidity,Sea Level PressureIn,VisibilityMPH,Wind Direction,Wind SpeedMPH,Gust SpeedMPH,PrecipitationIn,Events,Conditions,WindDirDegrees,DateUTC
12:04 AM,50.0,48.0,93,30.04,3.0,Calm,Calm,-,N/A,,Clear,0,2013-09-03 05:04:00
12:40 AM,48.9,48.0,97,30.05,1.8,Calm,Calm,-,N/A,,Clear,0,2013-09-03 05:40:00
12:47 AM,48.2,46.4,93,30.05,2.0,NE,4.6,-,N/A,,Partly Cloudy,50,2013-09-03 05:47:00
12:48 AM,48.2,46.4,93,30.05,1.8,ENE,4.6,-,N/A,,Partly Cloudy,60,2013-09-03 05:48:00
12:53 AM,50.0,48.0,93,30.05,2.5,NE,3.5,-,N/A,,Partly Cloudy,50,2013-09-03 05:53:00
1:00 AM,48.9,48.0,97,30.05,10.0,Calm,Calm,-,N/A,,Partly Cloudy,0,2013-09-03 06:00:00
1:11 AM,48.9,46.9,93,30.05,2.0,Calm,Calm,-,N/A,,Mostly Cloudy,0,2013-09-03 06:11:00
1:13 AM,48.9,46.9,93,30.05,1.0,Calm,Calm,-,N/A,,Mostly Cloudy,0,2013-09-03 06:13:00
1:21 AM,48.9,46.9,93,30.05,0.8,Calm,Calm,-,N/A,,Mist,0,2013-09-03 06:21:00
1:53 AM,50.0,48.9,96,30.06,0.2,Calm,Calm,-,N/A,Fog,Fog,0,2013-09-03 06:53:00
2:25 AM,50.0,48.9,96,30.07,1.2,SSW,3.5,-,N/A,,Overcast,200,2013-09-03 07:25:00
2:27 AM,50.0,48.9,96,30.07,3.0,South,3.5,-,N/A,,Overcast,180,2013-09-03 07:27:00
2:33 AM,50.0,48.9,96,30.07,1.5,Calm,Calm,-,N/A,,Overcast,0,2013-09-03 07:33:00
2:36 AM,50.0,48.9,96,30.07,0.8,Calm,Calm,-,N/A,,Overcast,0,2013-09-03 07:36:00
2:53 AM,50.0,48.0,93,30.08,0.2,Calm,Calm,-,N/A,Fog,Fog,0,2013-09-03 07:53:00
3:53 AM,50.0,48.9,96,30.08,0.2,Calm,Calm,-,N/A,Fog,Fog,0,2013-09-03 08:53:00
4:53 AM,50.0,48.9,96,30.09,0.2,Calm,Calm,-,N/A,Fog,Fog,0,2013-09-03 09:53:00
5:53 AM,48.9,48.0,97,30.10,0.2,Calm,Calm,-,N/A,Fog,Fog,0,2013-09-03 10:53:00
6:53 AM,48.9,48.0,97,30.11,0.2,Calm,Calm,-,N/A,Fog,Fog,0,2013-09-03 11:53:00
7:53 AM,50.0,48.9,96,30.13,0.2,Calm,Calm,-,N/A,Fog,Fog,0,2013-09-03 12:53:00
8:53 AM,52.0,51.1,97,30.13,0.2,Calm,Calm,-,N/A,Fog,Fog,0,2013-09-03 13:53:00
9:23 AM,54.0,52.0,93,30.12,1.2,Calm,Calm,-,N/A,,Overcast,0,2013-09-03 14:23:00
9:27 AM,54.0,52.0,93,30.12,3.0,Calm,Calm,-,N/A,,Overcast,0,2013-09-03 14:27:00
9:45 AM,57.0,53.1,87,30.12,10.0,Calm,Calm,-,N/A,,Scattered Clouds,0,2013-09-03 14:45:00
9:53 AM,60.1,53.1,78,30.13,10.0,Calm,Calm,-,N/A,,Partly Cloudy,0,2013-09-03 14:53:00
10:53 AM,68.0,52.0,56,30.12,-9999.0,West,5.8,-,N/A,,Clear,270,2013-09-03 15:53:00
11:53 AM,71.1,53.1,53,30.11,10.0,SW,5.8,-,N/A,,Clear,230,2013-09-03 16:53:00
12:53 PM,73.9,54.0,50,30.09,10.0,Variable,5.8,-,N/A,,Clear,0,2013-09-03 17:53:00
1:53 PM,75.0,53.1,46,30.07,10.0,Variable,3.5,-,N/A,,Clear,0,2013-09-03 18:53:00
2:53 PM,75.9,52.0,43,30.06,10.0,WSW,8.1,-,N/A,,Clear,250,2013-09-03 19:53:00
3:53 PM,77.0,52.0,42,29.53,10.0,West,6.9,-,N/A,,Clear,260,2013-09-03 20:53:00
4:53 PM,77.0,53.1,43,29.53,10.0,SW,6.9,-,N/A,,Clear,220,2013-09-03 21:53:00
5:53 PM,73.0,57.0,57,30.04,10.0,WSW,4.6,-,N/A,,Clear,240,2013-09-03 22:53:00
6:53 PM,72.0,55.0,55,30.04,10.0,Calm,Calm,-,N/A,,Clear,0,2013-09-03 23:53:00
7:53 PM,62.1,57.0,84,30.04,10.0,Calm,Calm,-,N/A,,Clear,0,2013-09-04 00:53:00
8:53 PM,57.0,54.0,89,30.06,10.0,Calm,Calm,-,N/A,,Clear,0,2013-09-04 01:53:00
9:53 PM,55.9,53.1,90,30.06,10.0,Calm,Calm,-,N/A,,Clear,0,2013-09-04 02:53:00
10:20 PM,55.0,53.1,93,30.05,2.0,Calm,Calm,-,N/A,,Partly Cloudy,0,2013-09-04 03:20:00
10:22 PM,55.0,53.1,93,30.05,0.8,Calm,Calm,-,N/A,,Mist,0,2013-09-04 03:22:00
10:40 PM,54.0,52.0,93,30.05,1.2,Calm,Calm,-,N/A,,Partly Cloudy,0,2013-09-04 03:40:00
10:44 PM,54.0,52.0,93,30.05,3.0,Calm,Calm,-,N/A,,Partly Cloudy,0,2013-09-04 03:44:00
10:53 PM,54.0,52.0,93,30.06,5.0,Calm,Calm,-,N/A,,Clear,0,2013-09-04 03:53:00
10:56 PM,54.0,52.0,93,30.05,1.8,Calm,Calm,-,N/A,,Clear,0,2013-09-04 03:56:00
10:59 PM,53.1,52.0,96,30.05,0.8,Calm,Calm,-,N/A,,Clear,0,2013-09-04 03:59:00
11:08 PM,54.0,52.0,93,30.05,0.2,Calm,Calm,-,N/A,Fog,Fog,0,2013-09-04 04:08:00
11:15 PM,53.1,52.0,96,30.05,2.5,Calm,Calm,-,N/A,,Partly Cloudy,0,2013-09-04 04:15:00
11:18 PM,53.1,52.0,96,30.05,1.0,Calm,Calm,-,N/A,,Mist,0,2013-09-04 04:18:00
11:28 PM,53.1,51.1,93,30.06,2.0,Calm,Calm,-,N/A,,Partly Cloudy,0,2013-09-04 04:28:00
11:32 PM,53.1,51.1,93,30.06,1.0,Calm,Calm,-,N/A,,Mist,0,2013-09-04 04:32:00
11:42 PM,52.0,51.1,97,30.06,2.5,Calm,Calm,-,N/A,,Clear,0,2013-09-04 04:42:00
11:49 PM,51.8,50.0,94,30.06,7.0,Calm,Calm,-,N/A,,Clear,0,2013-09-04 04:49:00
11:53 PM,52.0,50.0,93,30.06,1.0,Calm,Calm,-,N/A,,Clear,0,2013-09-04 04:53:00